Orbital Elements at Epoch 2459000.5 (2020-May-31.0) TDB
Reference: JPL 17 (heliocentric ecliptic J2000)
Element | Value | Uncertainty (1-sigma) | Units |
e | .110786717337783 | 3.9792e-08 | |
a | 3.030830482075249 | 2.2423e-08 | au |
q | 2.695054722158842 | 1.1462e-07 | au |
i | 3.212135996232302 | 4.3842e-06 | deg |
node | 303.309924455436 | 8.1786e-05 | deg |
peri | 146.4335124667689 | 8.4972e-05 | deg |
M | 206.3700881156488 | 2.5403e-05 | deg |
tp | 2459822.958848250103 (2022-Aug-31.45884825) | 0.00014068 | TDB |
period | 1927.262612719082 5.28 | 2.1388e-05 5.856e-08 | d yr |
n | .1867934331440661 | 2.073e-09 | deg/d |
Q | 3.366606241991656 | 2.4908e-08 | au |
|
| | Orbit Determination Parameters
Additional Information
|